Погода в Полоцке

Погода в Полоцке : погода сейчас, прогноз погоды и архив. Всё, что Вы хотите узнать о погоде в Полоцке!

Хотите узнать прогноз погоды в Полоцке? Тогда Вам сюда: Погода в Полоцке

Поиск расширенной информации на нашем сайте:

Другие новости

Новости СМИ2

Главная страница сайта

Новости сайта

03.07.2017

Напоминаем, что на нашем специализированном сайте Метеоцентр.Азия вы можете получить высокодетализированные автоматические прогнозы погоды по пунктам России, СНГ и мира в авиационном формате (включающие направление и скорость ветра, видимость, явления погоды, количество и форму облачности, нижнюю и верхнюю границу облачности).


Погода в Полоцке - сегодня

Время (UTC), дата Ветер
(°,м/с) 
Видим.   Явления Облачность Т
(°С)
Тd
(°С)
f(%) Тe
(°С)
Pmin
(гПа)
dP
(гПа)
Po
(мм)
O2
(г/м3)
Тmin Tmax R s Состояние
почвы
15 19.07.17 240 (ЮЗ) 20000 м    4/3 1000 м верхняя 
[Cu hum|Ci fib]
+20.7 +8.5 45 +21  1016.8  -1.3  751  280           
18 19.07.17 220 (ЮЗ) 10 км    3/0 средняя 
[Ac trans]
+17.5 +10.2 62 +20  1016.8  -0.2  751  282    +21.3       
21 19.07.17 тихо ()   10 км    1/0 верхняя 
[Ci fib]
+11.7 +10.2 91 +13  1017  -0.1  751  288           
00 20.07.17 тихо ()   10 км    3/0 верхняя 
[Ci fib]
+9 +8.4 96 +9  1016.5  -0.6  750  291           
06 20.07.17 240 (ЮЗ) 20000 м    3/0 верхняя 
[Ci ing]
+16.8 +10.6 67 +20  1014.9  -0.5  749  283  +7.5         
09 20.07.17 270 (З) 20000 м    8/5 600 м кучево-дожд., верхняя 
[Cb cap|Ci ing]
+19.8 +9.7 52 +22  1014.2  -0.5  749  280           
12 20.07.17 160 (Ю) 20000 м  в посл. час ливневой дождь  8/5 600 м кучево-дожд., верхняя 
[Cb cap|Ci ing]
+19.4 +13.8 70 +28  1012.6  -1.5  748  279      0.0     
18 20.07.17 340 (С) 10 км  {ливн. осадки}  6/4 1000 м верхняя 
[Sc|Ci fib]
+17.8 +14.1 79 +26  1012.3  0.4  748  280    +22.5  0.5     
21 20.07.17 тихо ()   10 км    5/1 1000 м верхняя 
[Sc|Ci fib]
+13.6 +12.1 91 +18  1013.6  748  285           
00 21.07.17 тихо ()   10 км    1/0 средняя 
[Ac trans]
+10.5 +9.9 96 +12  1014  0.2  749  289           
03 21.07.17 тихо ()   10 км    4/0 средняя, верхняя 
[Ac trans|Cc]
+10 +9 93 +10  1014.6  0.6  749  290           
06 21.07.17 070 (В) 15000 м    4/0 верхняя 
[Ci ing]
+16.2 +10.5 69 +19  1015  0.7  749  283  +9.1         
09 21.07.17 330 (СЗ) 20000 м    5/3 1000 м верхняя 
[Cu hum|Ci ing]
+18.7 +9.4 55 +20  1015.8  0.9  750  281           
12 21.07.17 060 (СВ) 20000 м    6/3 1000 м верхняя 
[Cu hum|Ci ing]
+21.1 +9.8 48 +22  1015.4  -0.3  750  279           
15 21.07.17 020 (С) 20000 м    5/3 1000 м верхняя 
[Cu med, cong|Ci ing]
+21 +8.2 44 +21  1015.2  -0.2  750  279           
18 21.07.17 тихо ()   10 км    9/0 средняя, верхняя 
[Ac trans|Ci ing]
+17.8 +10.2 61 +19  1015.6  0.3  750  282    +22       
21 21.07.17 тихо ()   10 км    9/0 средняя 
[Ac trans]
+15.2 +11.1 76 +18  1016.1  0.3  750  284           
00 22.07.17 тихо ()   10 км    9/0 средняя 
[Ac trans]
+13.6 +11.3 86 +17  1016.2  750  286           
03 22.07.17 тихо ()   15000 м    5/0 средняя 
[Ac trans]
+11.9 +11 94 +14  1016.2  750  288           
06 22.07.17 060 (СВ) 15000 м    3/0 верхняя 
[Ci ing]
+18.4 +16.4 88 +31  1016.4  0.5  751  280  +11.5         
09 22.07.17 040 (СВ) 20000 м    8/6 840 м верхняя 
[Cu med, cong|Ci fib]
+19.6 +9.7 53 +22  1016.8  0.4  751  281           
12 22.07.17 020 (С) 20000 м    8/6 870 м верхняя 
[Cu med, cong|Ci fib]
+22.4 +8.8 42 +22  1016.5  751  278           
15 22.07.17 010 (С) 20000 м    6/4 600 м верхняя 
[Cu hum|Ci fib]
+22.8 +10.3 45 +24  1016.1  -0.4  751  277           
18 22.07.17 тихо ()   15000 м    5/0 средняя, верхняя 
[Ac trans|Ci fib]
+17.5 +12.1 71 +22  1017  0.6  751  282    +23.5       
21 22.07.17 тихо ()   10 км    ясно 
+13.3 +11.7 90 +17  1018.1  0.8  752  287           
Время (UTC), дата Ветер
(°,м/с) 
Видим.   Явления Облачность Т
(°С)
Тd
(°С)
f(%) Тe
(°С)
Pmin
(гПа)
dP
(гПа)
Po
(мм)
O2
(г/м3)
Тmin Tmax R s Состояние
почвы

Для получения пояснительной информации подведите курсор к названию столбца.

ПОГОДА в Полоцке - архив

Всё, что Вы хотите узнать о погоде в Полоцке - удобно и подробно!

Выберите нужную дату (начиная с 1 января 2015* года) и нажмите кнопку "Найти".
Будут отображены архивные сводки погоды по пункту Полоцк, начиная с указанной даты.


Отображать данные в формате CSV (для использования в таблицах Excel)


Внимание! Наш архив погоды предназначен исключительно для личного некоммерческого использования в познавательных целях. Если Вам необходимы официальные справки о состоянии погоды (для производственных, юридических, коммерческих и т.п. целей), обращайтесь в органы Росгидромета.

*Примечание: данная дата относится к архиву по метеостанциям СССР (Россия, СНГ, Балтия).
Архив по метеостанциям Зарубежной Европы и Азии (кроме Китая) хранится 10 дней, по другим регионам земного шара (Китай, Африка, Америка, Австралия, Океания) - 1 день.

Полоцк - район местоположения метеостанции


Название, широта, долгота, высота метеостанции:
Полоцк 55.5°ш. 28.8°д. 133 м над ур. моря [Беларусь]

Дополнительная информация

В oтличие oт бoльшинства пoгoдных сайтoв мы публикуем пoдрoбную метеoинфoрмацию в детальнoм прoфессиoнальнoм фoрмате.

Характеристики температуры и влажнoсти вoздуха измеряются на высoте 2 м в тени вдали oт зданий и деревьев.
Скoрoсть ветра измеряется на высoте 10 м (на урoвне рoста челoвека скoрoсть ветра ниже в 1.5-2 раза). Если метеoстанция нахoдится в гoрoде или в лесу, тo скoрoсть ветра занижена на 2-4 м/с пo сравнению с oткрытым местoм. Скoрoсть ветра над акватoриями крупных рек и oзёр, а также на вершинах хoлмoв на 2-5 м/с выше, чем в oбычных услoвиях.
Атмoсфернoе давление в разных тoчках местнoсти мoжет значительнo oтличаться oт давления на метеoстанции, в зависимoсти oт услoвий рельефа (при пoдъёме на 10 м давление пoнижается примернo на 1 мм рт.ст.).